Location: *
(0.1100°N, 5.5000°E)
Time: 15:03:13
(UTC+00:00)

Daily predictions for brighter satellites

Satellite Brightness Start Highest point End
(mag) Time Altitude Azimuth Time Altitude Azimuth Time Altitude Azimuth
Ariane H10+ 4.2 16:44:59 10° WSW 16:50:07 67° SSE 17:54:06 10° E
Cosmos 1867 4.1 17:42:39 10° SSW 17:47:58 62° WNW 17:53:18 10° NNE
CZ-3C R/B 1.6 17:46:50 10° SW 17:48:55 32° SSE 17:53:35 10° E
Meteor 1-10 Rocket 4.4 17:43:23 10° S 17:49:20 86° E 17:55:09 10° N
H-2A R/B 2.2 17:45:22 10° SSE 17:50:37 55° ENE 17:55:43 10° N
Cosmos 1898 Rocket 3.5 17:47:00 10° N 17:52:06 63° ENE 17:57:12 10° SSE
Atlas Centaur 2 2.2 17:50:25 10° NNW 17:53:23 24° NNE 17:56:29 10° E
PSLV R/B 3.8 17:53:15 10° S 17:56:58 82° W 18:00:37 10° NNW
CZ-2C R/B 4.3 17:53:31 10° NNW 17:58:10 35° WNW 18:02:55 10° SW
Cosmos 1500 3.2 17:55:13 10° N 17:58:55 86° W 18:02:38 10° S
Gbstr 26 Del rocket 4.4 17:52:05 10° SSW 17:59:05 50° SE 18:04:50 10° NE
USA 32 4.3 17:56:05 10° SSE 18:01:07 49° E 18:06:07 10° NNE
Cosmos 2026 Rocket 4.3 17:55:39 10° N 18:01:39 71° W 18:07:41 10° S
Cosmos 2360 4.4 17:59:43 10° N 18:05:12 49° ENE 18:10:39 10° SSE
MOS 1-B 4.3 18:00:19 10° SSE 18:06:04 75° ENE 18:11:49 10° N
Aureole 3 Rocket 2.4 18:04:00 10° S 18:06:57 50° E 18:10:12 10° NNE
Genesis I 3.5 18:06:19 10° SSW 18:10:01 65° WNW 18:13:48 10° NNE
Centaur AC-42 3.7 18:07:02 10° NW 18:12:21 67° NNE 18:49:48 10° ESE
Centaur AC-42 3.7 18:07:03 10° NW 18:12:21 67° NNE 18:49:48 10° ESE
Centaur AC-42 3.7 18:07:03 10° NW 18:12:21 67° NNE 18:49:47 10° ESE
Centaur AC-42 3.7 18:07:03 10° NW 18:12:22 67° NNE 18:49:47 10° ESE
ATLAS 5 CENTAUR R/B 3.5 17:59:47 10° W 18:12:46 29° NW 18:17:16 10° NNE
Cosmos 1666 Rocket 3.5 18:09:12 10° N 18:13:33 79° E 18:17:53 10° S
GPS 2-14 Rocket1 2.8 18:09:52 10° NW 18:13:36 51° NNE 18:16:57 13° E
Cosmos 1470 Rocket 4.3 18:12:58 10° NNE 18:16:57 31° E 18:20:55 10° SSE
Cosmos 1655 Rocket 4.4 18:14:16 10° NNE 18:20:07 39° E 18:25:54 10° SSE
Cosmos 2228 Rocket 3.3 18:17:22 10° SSE 18:21:36 46° E 18:25:48 10° NNE
SL-08 RB Rocket 4.1 18:17:40 10° SSE 18:22:03 41° ENE 18:26:25 10° N
CZ-3 Stage 3 4.4 17:58:06 10° WNW 18:26:05 55° SW 18:31:32 10° SE
deb Chang Zheng 4 3.5 18:23:58 10° S 18:28:14 85° WSW 18:32:31 10° NNW
Cosmos 1666 3.0 18:24:41 10° NNW 18:28:21 65° W 18:32:03 10° S
Cosmos 1937 Rocket 3.9 18:26:45 10° NNW 18:31:59 66° WSW 18:37:11 10° S
Cosmos 1515 3.5 18:28:32 10° S 18:32:18 82° E 18:35:59 10° N
DNEPR-1 R/B 4.1 18:30:00 10° SSW 18:36:06 65° ESE 18:39:23 22° NE
ARIANE 5 DEB (SYLDA) 4.5 18:34:40 10° WSW 18:37:19 34° S 18:38:46 20° SE
USA 229 DEB 4.0 18:32:07 10° NNW 18:39:58 72° ENE 18:47:50 10° SSE
USA 229 4.0 18:32:14 10° NNW 18:40:04 71° ENE 18:47:54 10° SSE
HJ-1C 4.1 18:39:11 10° SSE 18:41:36 34° ESE 18:41:36 34° ESE
Cosmos 372 Rocket 3.9 18:37:45 10° NNW 18:43:00 90° W 18:48:14 10° SSE
Cosmos 1697 Rocket 3.5 18:37:41 10° NNW 18:43:08 54° WSW 18:48:37 10° S
H-2A R/B 3.0 18:39:22 10° N 18:43:41 50° WNW 18:47:58 10° SSW
COSMOS 2487 4.2 18:42:01 10° SSE 18:43:18 17° SE 18:43:18 17° SE
H-2A R/B 2.6 18:41:07 10° SSE 18:44:44 40° ENE 18:44:52 40° ENE
Cosmos 1980 Rocket 2.1 18:42:06 10° N 18:47:39 67° ENE 18:53:11 10° SSE
Hubble Space Telescope 2.1 18:45:46 10° SSW 18:49:19 27° SSE 18:50:13 25° SE
Cosmos 2084 3.8 18:45:02 10° NNW 18:49:38 77° WSW 18:54:20 10° SSE
Cosmos 2369 3.7 18:44:03 10° NNW 18:49:44 83° WSW 18:55:25 10° SSE
Okean 1 3.2 18:46:43 10° S 18:50:44 70° E 18:52:06 39° NNE
ARGOS 3.8 18:46:56 10° S 18:52:14 56° WSW 18:57:32 10° NNW
ARIANE 3 DEB 2.6 18:51:38 10° W 18:53:36 47° NW 18:53:36 47° NW
CZ-4C R/B 4.1 18:52:42 10° N 19:05:52 14° ESE 19:07:09 10° SE
YAOGAN 1 2.5 18:56:41 10° S 19:01:00 87° WSW 19:04:45 14° NNW
BLOCK DM-SL R/B 3.0 18:57:51 10° W 19:01:43 89° S 19:03:49 38° E
NOAA 15 4.5 18:56:39 10° SSE 19:01:59 83° ENE 19:07:16 10° N
Sakura Rocket 4.3 18:58:56 10° NW 19:02:06 28° N 19:02:06 28° N
SL-27 R/B 4.2 19:03:38 10° SW 19:06:36 28° WNW 19:07:57 21° NW
Cosmos 1707 Rocket 3.3 19:03:08 10° S 19:07:29 82° E 19:07:46 75° NE
Cosmos 2278 3.5 19:08:08 10° NNW 19:13:48 83° ENE 19:19:27 10° SSE
Okean O Rocket 4.1 19:11:38 10° SSW 19:15:02 22° WSW 19:18:27 10° NW
Okean-O 4.3 19:12:45 10° SSE 19:14:24 22° SSE 19:14:24 22° SSE
ARIANE 5 DEB (SYLDA) 4.2 19:14:29 10° WSW 19:17:48 47° S 19:20:25 32° ESE
CZ-4 R/B 2.4 19:14:12 10° S 19:18:15 47° WSW 19:21:12 17° NNW
IRS-1C Rocket 3.9 19:14:23 10° SSE 19:19:36 73° E 19:19:36 73° E
USA 215 3.6 19:20:06 44° ESE 19:20:50 45° SE 19:27:00 10° SSW
CZ-4B R/B 3.8 19:22:04 16° WNW 19:22:14 17° WNW 19:24:14 10° WSW
Intelsat 5-3 Rocket 4.2 19:19:50 10° SW 19:23:00 21° S 19:23:00 21° S
Cosmos 1538 Rocket 4.1 19:18:27 10° SSW 19:23:48 75° WNW 19:24:41 61° NNW
Cosmos 1417 Rocket 4.3 19:18:48 10° S 19:25:04 83° E 19:26:24 58° NNE
Cosmos 1536 4.4 19:29:03 29° SSW 19:29:03 29° SSW 19:31:09 10° S
CZ-3B R/B 3.6 19:29:42 10° SW 19:38:49 50° SSE 19:40:02 46° SE
ARIANE 5 DEB (SYLDA 5A) 4.2 18:44:54 10° W 19:40:21 84° N 19:41:58 63° ENE
Atlas Centaur 2 3.4 19:38:30 10° W 19:40:21 23° WSW 19:40:21 23° WSW
Cosmos 2297 Rocket 4.1 19:37:31 10° SSE 19:39:06 18° SSE 19:39:06 18° SSE
ATLAS 2A CENTAUR R/B 4.3 19:53:15 10° WSW 20:00:09 39° SW 20:00:09 39° SW
CZ-4C R/B 4.2 20:40:21 10° NW 20:50:28 39° SW 20:56:25 10° S
